Theta_e
306 306 306 306 306 306 306 306 306 306 307 306 307 306 306 306 306 306 306 306 306 306 307 306 307 307 307 307 307 307 307 305 304 304 303 302 303 303 304 305 306 307 307 308 308 308 308 307 306 305 308 306 303 305 304 302 308 317 319 316 313 309 307 305 304 301 302 306 302 298 298 298 299 294 290 290 291 291 290 289 288 287 286 286 287 287 288 289
307 306 306 306 306 306 306 306 306 307 306 306 307 306 306 306 306 306 306 307 306 306 307 306 307 307 307 308 307 307 308 306 304 303 303 303 303 304 305 305 306 307 307 308 308 308 309 307 304 305 308 307 303 304 305 301 306 315 317 315 310 306 303 302 304 301 300 304 302 298 297 296 298 296 291 293 294 291 292 292 289 288 287 286 286 287 288 287
307 306 306 306 306 306 306 306 307 306 306 306 306 306 306 306 306 306 306 307 306 306 306 306 307 307 307 308 307 308 308 306 304 303 303 303 304 305 305 306 306 307 308 308 308 307 308 307 304 306 311 308 304 304 306 304 304 307 314 313 305 303 302 298 301 302 299 302 303 298 296 295 296 293 292 295 295 291 294 295 291 290 289 287 286 286 287 286
307 306 306 306 306 306 306 306 307 306 305 304 305 305 305 305 306 305 306 306 306 306 306 307 307 307 307 307 308 308 307 307 304 302 303 303 304 305 305 306 306 308 309 308 308 307 306 305 304 310 313 310 310 309 306 304 303 304 308 309 302 302 302 297 299 301 298 300 303 298 296 296 294 292 292 295 296 295 295 294 294 295 291 287 285 285 286 286
306 306 305 305 305 306 306 307 306 305 304 304 304 304 304 305 305 305 306 306 306 307 306 307 306 307 307 307 308 307 309 310 305 302 304 303 304 305 305 306 307 308 308 307 308 307 306 305 307 316 314 309 315 314 305 301 302 303 301 301 301 300 300 298 297 299 298 297 300 298 298 298 294 293 293 294 298 301 298 294 293 294 291 287 286 285 285 285
306 305 305 305 306 306 306 306 305 305 305 305 304 304 305 305 305 306 306 306 307 306 307 307 306 306 306 306 307 306 309 308 303 303 303 303 304 305 305 306 307 307 308 308 307 306 308 308 310 318 315 308 309 307 304 300 301 303 299 297 299 299 298 297 294 296 297 299 301 300 298 295 293 295 294 292 297 300 296 290 289 289 287 286 286 285 284 284
305 305 305 305 306 306 305 305 305 305 306 306 305 304 305 305 306 306 306 307 307 306 308 308 307 307 306 305 305 306 308 305 302 303 303 303 304 304 305 306 306 307 308 307 306 307 309 310 309 314 316 309 304 303 303 302 302 306 302 298 298 298 298 296 295 296 297 300 300 297 296 295 297 297 293 292 295 296 292 286 285 287 286 285 285 284 284 284
305 305 305 305 305 305 305 305 306 306 306 305 305 305 305 305 305 305 306 307 306 306 307 308 307 306 307 307 307 308 306 303 302 304 303 303 304 304 305 306 306 307 307 305 305 306 308 310 308 310 313 307 304 304 302 304 306 305 301 298 298 297 297 296 297 298 297 297 294 294 297 295 295 293 291 294 294 293 289 285 285 285 285 285 284 284 284 284
305 305 305 305 305 305 305 305 305 306 305 305 305 305 305 305 305 305 306 306 306 306 306 307 306 306 307 305 308 309 304 302 303 303 303 303 304 304 305 305 306 306 306 304 304 305 306 308 308 307 308 305 305 306 304 306 305 302 300 298 298 297 296 296 298 298 296 295 292 296 298 294 291 291 293 296 294 291 288 286 285 285 286 286 284 284 284 284
306 305 305 305 305 305 305 305 305 305 305 305 305 305 306 305 305 306 306 306 306 306 306 306 306 307 307 305 310 309 303 303 303 303 303 303 304 304 305 304 305 306 304 303 303 304 305 307 303 302 307 306 305 304 304 306 303 302 302 300 299 298 296 296 298 298 295 295 294 296 299 294 290 292 297 297 292 289 289 288 286 286 287 286 285 283 284 284
307 306 306 305 305 305 305 305 305 305 305 305 305 306 306 305 306 306 307 307 307 306 305 305 306 306 305 305 309 307 302 303 303 303 303 303 304 304 304 304 305 305 304 303 302 302 303 303 300 302 306 305 304 305 302 303 300 300 302 301 301 300 297 297 298 297 296 296 294 294 296 293 290 292 297 296 290 288 290 289 286 286 286 286 285 284 283 284
307 306 306 305 305 305 305 305 305 305 305 305 305 305 306 305 306 306 306 307 307 308 307 306 306 306 305 304 305 304 302 303 303 303 303 304 304 303 303 303 304 304 305 303 302 303 303 302 303 306 307 303 304 305 302 303 302 301 304 303 302 304 300 297 298 296 296 297 294 294 297 295 293 294 296 293 288 287 288 289 286 286 285 285 285 284 283 283
307 306 306 306 306 305 305 305 305 305 305 305 305 305 306 306 305 306 307 307 307 309 307 307 306 305 308 307 303 303 303 303 303 303 304 304 303 303 303 303 303 303 305 303 301 303 303 302 303 304 306 307 304 301 301 304 303 301 303 304 302 307 305 298 297 295 295 296 294 295 301 302 298 295 294 290 287 287 288 288 287 286 285 285 285 285 284 283
307 306 306 306 305 305 305 305 305 305 305 306 305 306 306 305 306 306 307 307 307 309 307 306 306 305 308 307 303 303 303 303 303 303 304 304 304 304 303 304 304 303 303 303 301 302 302 302 303 302 302 305 302 300 307 309 307 304 302 306 304 304 309 301 297 297 295 295 294 295 300 302 300 299 296 289 287 288 290 289 286 286 285 285 285 285 285 284
307 307 307 306 306 305 305 305 305 305 306 306 305 306 305 306 306 306 307 307 308 308 306 306 306 307 309 305 302 303 303 303 304 303 303 304 304 304 304 303 303 303 303 302 302 302 302 301 303 304 300 300 303 305 312 311 309 308 303 311 308 302 309 305 298 299 297 295 293 295 300 299 298 300 295 288 287 288 290 289 286 286 285 285 285 284 285 284
307 307 307 306 305 305 305 305 305 305 306 306 306 306 306 307 307 307 308 307 308 307 306 306 304 307 310 305 302 304 303 302 303 302 303 304 304 305 304 303 303 303 303 302 303 302 301 302 301 302 301 303 310 312 313 312 313 311 305 308 310 303 306 305 299 298 297 297 294 295 299 299 298 298 292 286 286 287 289 289 287 286 286 285 285 284 284 284
307 307 306 306 306 305 306 306 306 306 306 306 306 306 306 307 306 307 307 307 307 306 306 306 304 306 307 303 302 303 302 302 302 303 304 303 304 306 303 303 303 302 304 302 303 302 301 303 300 300 303 303 307 312 314 316 319 316 307 307 307 303 303 304 303 298 295 297 296 296 297 296 297 297 293 289 287 287 288 288 288 286 286 285 285 284 284 284
306 306 306 306 306 306 306 306 306 306 307 307 306 306 307 306 306 306 307 307 307 307 307 306 306 310 306 302 303 302 302 301 302 303 303 304 305 305 304 304 302 301 308 306 302 304 302 304 304 305 309 304 307 318 319 314 313 312 307 306 306 303 302 303 303 298 295 297 297 297 296 295 296 295 295 292 287 287 288 288 288 287 286 285 285 285 285 284
306 306 306 306 306 306 306 306 306 306 307 307 307 308 307 306 306 306 306 306 308 308 307 305 306 310 306 302 301 301 302 302 303 303 303 304 304 303 303 302 302 304 311 309 304 305 304 309 312 309 312 307 305 315 315 307 305 304 302 302 304 303 302 301 301 298 296 298 298 297 297 296 296 294 296 295 288 286 288 287 287 287 286 286 285 285 285 285
306 306 305 306 306 305 306 306 306 306 307 307 307 307 309 312 311 311 308 306 306 303 303 305 303 304 304 302 302 302 302 302 303 303 302 303 302 304 302 301 309 311 309 309 304 301 304 314 315 312 315 309 304 306 304 300 299 301 301 301 302 301 301 300 300 299 297 299 301 300 298 296 296 295 295 296 291 287 287 286 286 287 286 286 286 285 285 285
306 306 306 306 306 307 307 307 307 306 307 307 307 307 312 315 310 308 308 305 302 299 301 302 300 302 302 301 302 300 302 302 302 302 302 303 302 303 303 304 315 312 305 306 305 303 309 314 309 309 310 305 303 303 300 300 300 300 301 302 302 301 301 299 297 297 296 298 301 300 297 296 296 296 295 295 293 291 289 287 287 287 287 286 286 286 286 285
305 306 306 306 307 309 309 310 309 308 308 309 309 309 311 311 306 305 307 307 304 300 300 300 300 303 301 300 302 299 303 306 303 303 302 303 304 304 306 309 314 309 304 306 308 311 316 310 304 303 302 300 301 301 299 302 302 301 301 301 304 302 301 301 298 296 296 296 299 298 297 296 296 296 295 294 294 293 290 289 289 288 288 287 287 286 286 286
306 306 306 307 307 308 309 310 310 308 309 310 309 309 307 307 306 305 307 309 307 302 303 304 304 306 303 302 302 301 306 306 304 305 302 303 306 305 309 314 313 309 307 308 310 313 311 306 303 300 299 300 301 300 300 302 302 303 301 300 304 302 300 303 300 297 297 296 297 297 295 296 297 298 297 293 292 292 290 290 288 287 288 288 287 287 286 287
306 306 307 307 307 308 308 308 308 308 308 308 308 308 308 308 307 307 310 310 308 305 304 303 303 304 305 303 302 304 306 303 303 304 301 304 306 304 307 311 311 311 307 307 312 313 304 300 299 299 300 300 299 300 301 301 303 304 301 300 304 302 298 300 298 295 297 296 295 296 299 303 302 303 302 294 290 292 291 291 291 288 288 287 287 287 287 287
306 306 306 306 306 307 307 307 309 307 307 308 307 308 307 307 307 308 312 311 309 309 304 302 302 302 302 302 303 303 304 303 302 302 300 302 305 304 304 304 306 309 306 303 308 310 303 297 296 301 302 300 299 301 301 300 301 305 304 301 301 300 297 297 296 296 300 300 295 295 305 314 307 303 305 298 294 297 293 292 295 292 289 288 287 287 287 287
305 306 306 306 306 306 307 309 308 307 308 308 308 308 306 308 309 307 313 318 315 314 308 303 304 303 302 303 303 302 305 306 301 300 301 300 301 302 303 303 303 305 307 304 304 305 302 297 297 301 302 301 302 301 300 300 302 305 304 299 298 297 296 296 296 297 303 303 296 294 303 311 305 303 304 298 297 300 296 295 296 293 291 290 289 288 288 287
306 306 305 305 306 306 307 309 308 308 308 307 308 308 305 308 307 305 313 317 313 311 308 305 304 304 304 302 301 303 306 306 301 300 300 299 300 301 304 307 304 305 305 304 307 305 300 299 299 300 301 301 301 301 300 300 303 305 300 297 298 296 296 297 296 298 300 299 297 295 298 304 305 304 300 294 298 302 301 302 301 297 294 291 290 289 289 289
306 306 306 305 305 305 306 307 309 309 309 309 308 307 306 307 306 308 311 308 305 308 307 305 304 303 306 302 300 306 306 303 304 302 298 298 300 303 308 309 306 308 302 303 313 310 299 300 302 300 301 301 301 301 300 298 300 302 298 295 297 296 297 297 297 300 297 297 304 300 295 301 307 305 298 293 298 304 305 306 306 305 301 295 292 290 289 289
305 306 305 305 306 306 306 306 307 308 309 309 306 306 307 304 308 314 312 304 305 308 306 305 304 303 306 303 302 308 305 303 306 303 299 299 299 303 307 306 307 308 301 303 313 309 299 300 301 300 301 303 302 299 299 299 299 299 296 295 296 295 296 297 298 301 299 302 309 302 295 302 308 307 303 298 300 306 307 307 306 305 302 298 294 292 290 289
305 306 304 305 307 305 307 306 306 308 308 306 306 307 305 309 324 324 310 306 306 306 306 305 305 305 306 304 304 307 305 305 308 304 302 302 301 304 301 301 306 308 305 307 308 304 300 297 298 300 300 300 299 297 297 299 298 298 297 297 299 297 295 297 299 299 302 310 311 300 295 300 305 308 307 303 302 305 306 305 304 302 300 298 295 293 291 290
305 306 304 306 306 306 308 307 307 309 307 305 305 306 305 314 329 323 305 307 307 306 307 305 307 310 309 306 306 308 306 306 307 306 307 305 307 311 305 304 310 310 317 319 309 303 301 299 300 301 299 297 296 297 296 295 296 298 299 298 303 304 299 301 305 303 307 315 309 298 296 298 303 307 308 306 304 302 302 302 302 302 301 299 297 295 293 290
305 305 305 305 306 306 307 307 308 307 305 306 304 310 318 314 316 317 311 310 308 308 307 305 307 310 309 306 305 307 306 304 307 308 308 306 307 309 305 307 310 311 322 321 311 311 308 303 300 299 298 297 297 301 300 298 298 300 302 303 310 316 309 310 314 310 311 311 300 295 298 299 300 302 303 304 303 302 301 300 301 301 300 299 297 296 293 291
304 306 305 305 306 305 306 307 307 305 305 307 307 318 328 317 313 316 314 311 306 306 307 305 305 306 307 306 304 304 303 302 305 305 303 302 304 303 299 301 302 305 312 310 308 317 318 307 299 298 300 296 296 302 304 303 301 299 302 306 311 314 312 314 314 308 309 308 297 292 296 300 302 303 303 303 304 304 302 300 300 299 298 297 295 293 291 289
305 306 305 305 305 305 307 306 306 306 305 307 314 319 316 315 317 312 312 314 307 304 307 306 306 304 304 305 304 303 305 303 303 304 304 303 304 305 302 299 297 303 312 308 305 309 314 312 303 300 300 296 295 299 299 301 300 298 297 299 306 310 309 311 312 310 308 305 299 294 298 304 308 308 305 304 303 300 299 297 295 294 293 292 291 290 289 288
307 305 304 306 305 305 306 305 306 306 305 313 322 317 311 318 319 311 315 316 307 306 306 303 304 305 306 308 305 302 303 304 303 303 305 304 306 308 307 302 299 303 310 310 307 304 307 310 302 296 296 294 296 296 294 299 301 297 294 296 303 307 307 306 305 303 300 300 302 300 301 304 304 303 300 299 301 299 298 297 295 297 295 290 290 290 290 289
307 304 305 305 304 305 305 304 306 305 308 319 318 313 321 324 310 307 312 307 304 307 305 305 307 306 309 311 308 303 302 302 303 303 304 305 305 305 305 303 300 301 305 308 309 306 306 309 300 295 296 294 294 295 294 299 302 297 296 300 299 296 301 305 300 295 294 300 306 302 303 302 300 305 305 302 305 305 305 304 302 302 298 292 292 292 291 291
306 304 303 303 304 305 304 305 307 306 312 319 312 314 324 315 302 307 310 303 303 304 302 308 310 306 308 310 309 308 304 302 304 304 305 306 305 304 304 301 297 298 300 301 305 305 306 310 301 296 298 295 292 294 294 295 298 299 300 300 295 292 299 302 301 301 301 304 305 301 305 304 300 308 311 308 309 308 308 307 303 301 298 295 295 294 293 292
304 305 303 302 303 304 305 306 305 310 318 315 311 316 316 306 302 305 306 302 303 303 302 307 307 304 308 310 309 306 302 307 309 306 306 306 305 304 304 302 297 296 296 297 303 303 303 308 304 295 297 297 293 296 298 294 293 297 298 296 295 299 305 302 301 306 305 304 306 303 303 303 301 308 312 310 308 306 304 303 301 302 300 298 297 295 294 293
306 311 309 303 303 305 305 305 306 314 320 315 316 316 306 305 306 303 303 303 303 304 305 306 303 303 307 310 310 304 301 308 310 305 305 306 304 302 301 301 299 297 296 297 302 302 300 306 307 297 293 296 296 298 304 300 293 294 295 294 296 300 305 303 299 302 304 303 306 305 305 306 305 308 311 308 305 303 302 301 301 301 299 298 297 295 295 294
305 314 314 303 303 307 305 306 313 317 314 315 321 315 304 305 306 301 301 303 302 303 305 305 303 304 307 307 306 303 302 305 306 305 305 304 304 302 299 299 300 298 296 296 299 302 301 303 308 302 295 297 300 300 303 304 299 298 297 297 297 296 298 299 296 297 302 305 304 304 306 307 304 305 307 304 302 302 301 300 300 299 297 297 296 295 295 294
305 313 314 304 302 306 305 310 316 314 311 312 314 310 305 306 305 303 301 300 301 302 301 304 304 304 308 306 303 303 305 306 304 304 305 304 304 303 298 297 300 298 298 298 299 301 301 301 307 307 302 303 304 297 295 298 298 299 302 303 302 299 299 302 300 297 296 300 302 303 304 303 301 303 304 302 302 301 300 299 298 297 296 295 295 295 294 294
307 311 310 303 303 305 308 312 308 304 312 312 306 305 306 304 303 303 302 300 300 300 299 302 304 305 307 305 302 303 306 306 304 303 305 304 302 302 299 295 297 298 301 302 298 298 300 301 303 304 303 302 299 293 291 293 293 294 298 299 300 302 303 306 307 301 297 296 295 296 299 301 300 303 303 302 301 301 299 297 295 295 295 295 295 295 294 294
314 313 306 303 304 305 309 311 305 306 314 308 300 302 303 303 303 302 301 301 301 301 302 304 303 303 304 302 302 303 303 305 305 304 306 305 301 299 297 296 296 297 301 301 297 297 299 301 302 304 305 300 294 291 291 292 292 294 296 295 296 300 301 303 304 300 300 300 296 295 299 301 300 301 301 300 299 298 297 296 295 296 295 296 297 296 295 295
317 310 305 304 303 304 310 312 307 310 317 308 302 304 302 301 302 301 302 304 302 302 305 306 302 301 303 301 302 302 301 303 304 302 302 303 301 296 296 298 297 295 298 301 299 297 300 304 304 305 308 305 301 301 300 297 295 296 298 295 295 297 297 297 295 294 298 302 299 300 302 300 300 301 299 298 298 297 297 297 297 297 297 297 297 296 296 295
310 306 309 309 304 303 308 313 315 318 320 314 309 307 305 302 301 302 303 304 302 303 305 303 300 301 302 301 301 302 301 301 302 301 299 301 299 296 297 299 298 297 299 300 298 296 299 304 302 303 307 306 307 309 307 305 301 298 297 295 294 295 296 297 297 297 298 298 297 301 303 300 299 300 298 298 297 297 298 298 297 298 297 297 296 295 295 295
306 308 314 315 310 308 306 305 313 321 321 316 309 306 306 306 303 300 301 302 301 301 302 301 300 301 301 300 302 304 302 299 299 300 301 302 301 297 297 299 299 298 299 299 298 298 299 299 299 303 307 305 305 305 301 300 301 299 299 298 296 294 293 297 300 299 299 298 296 299 300 298 298 298 297 297 298 297 298 297 297 297 296 296 295 295 295 295
306 308 311 310 311 313 308 305 312 315 310 308 306 304 305 306 303 299 298 299 300 300 300 300 300 301 302 302 303 304 302 299 298 299 299 301 300 296 294 297 297 297 298 297 296 298 299 299 298 300 302 301 301 300 297 296 297 297 297 298 298 295 292 295 298 298 299 299 298 297 297 297 297 297 297 298 297 297 297 296 296 296 295 295 295 295 296 295
302 306 306 303 305 309 305 306 313 313 305 303 304 303 305 307 306 304 300 298 299 299 300 301 301 302 303 303 302 303 303 301 301 301 300 299 299 298 296 295 295 296 296 294 295 298 300 300 298 297 299 299 296 296 296 295 295 296 296 297 297 295 294 295 296 295 296 298 298 298 298 297 297 297 297 297 296 296 296 295 295 294 294 295 295 295 295 295
302 305 302 299 305 310 306 303 309 313 307 305 306 304 306 309 310 306 300 300 302 300 299 303 305 304 304 303 300 302 305 304 302 303 301 299 299 300 301 299 296 294 294 294 295 296 299 302 299 295 298 299 296 296 295 295 296 297 296 296 296 295 294 294 294 294 294 295 296 295 296 295 295 295 295 295 295 294 294 294 294 295 295 295 295 295 295 295
307 306 303 303 307 307 305 303 306 309 305 303 306 305 305 310 311 304 300 301 304 302 298 302 306 305 304 303 300 303 306 303 300 300 301 300 299 301 304 302 300 296 295 295 294 292 295 301 299 296 298 299 299 298 296 295 297 297 296 297 296 296 295 293 293 292 292 294 294 293 293 294 293 294 295 294 295 294 294 295 295 295 295 295 295 295 294 294
305 302 302 310 309 304 305 306 305 307 306 304 306 305 305 309 309 304 302 301 303 303 302 304 306 304 302 301 302 305 304 301 300 299 298 298 299 300 300 298 301 302 297 294 294 293 295 298 297 297 300 301 299 299 297 296 296 296 298 300 299 299 300 299 296 295 294 296 296 294 295 297 296 296 296 295 296 295 295 295 295 295 295 295 295 295 294 294
304 300 301 309 306 302 306 308 303 304 308 309 308 304 305 309 306 303 303 303 301 302 301 303 305 302 302 305 305 302 300 298 297 296 295 296 298 299 297 295 300 304 300 295 294 292 294 298 298 297 301 303 300 297 296 297 301 303 301 300 300 301 302 301 298 296 295 296 297 298 298 298 297 296 295 295 295 295 295 294 294 294 294 295 295 294 293 293
Wind_Speed
9 10 10 9 10 9 9 8 9 9 6 5 6 6 6 6 5 5 5 5 4 3 2 2 3 3 4 6 8 9 12 18 26 33 26 19 25 22 19 15 12 12 7 5 6 4 9 14 13 11 9 7 6 4 4 4 4 5 4 4 3 4 4 5 7 6 4 3 5 5 5 5 3 2 2 1 4 2 1 2 2 4 3 3 3 7 15 20
7 7 8 8 8 8 7 7 7 6 3 4 6 6 6 6 4 3 3 2 2 1 2 2 3 4 5 6 9 10 8 13 27 31 24 23 24 19 17 14 10 11 6 5 7 7 8 7 8 11 8 4 4 5 3 4 5 4 3 4 2 5 3 4 7 6 2 3 7 5 5 5 5 4 4 2 2 2 1 3 3 5 5 3 5 12 16 18
6 6 7 7 7 8 7 6 5 4 3 5 7 6 5 5 2 2 2 1 1 4 5 6 8 8 7 8 10 10 9 11 19 19 24 27 22 18 19 14 9 10 4 6 8 11 12 8 10 10 6 4 4 4 5 5 4 2 4 4 2 5 1 1 5 7 4 5 9 5 4 4 4 4 3 3 3 1 4 5 2 5 7 6 8 13 15 17
5 5 5 6 6 6 7 6 6 6 6 7 6 5 4 2 1 1 1 1 3 5 8 10 11 11 11 11 10 9 9 9 8 14 23 27 22 19 19 14 9 7 4 9 10 13 15 14 14 9 5 5 4 4 5 4 2 3 3 3 4 4 2 1 4 5 3 5 8 5 4 2 4 3 3 5 4 4 8 8 8 9 10 8 9 13 16 16
5 5 4 7 7 6 8 8 7 7 7 7 6 5 4 3 2 1 1 1 3 4 9 12 9 6 6 9 10 9 6 6 5 16 23 25 24 18 17 14 7 4 8 11 11 11 12 11 10 8 6 4 6 5 4 4 2 4 2 2 3 4 3 1 2 5 4 5 6 7 4 3 3 1 4 8 5 6 6 7 10 9 10 13 13 15 15 15
7 6 7 9 9 9 11 10 8 7 7 8 7 7 6 5 5 3 1 1 1 3 7 15 15 13 11 9 5 2 4 4 8 17 19 23 25 17 15 12 4 5 8 9 8 8 8 8 8 5 5 4 4 4 2 5 3 4 1 1 2 2 3 1 2 4 4 7 6 6 4 4 5 3 3 8 10 8 5 5 8 8 11 16 16 15 14 14
8 8 10 12 13 12 11 9 7 7 8 8 8 8 8 7 6 5 3 1 2 4 2 7 11 10 10 13 16 13 9 2 11 16 16 20 24 17 11 7 4 4 5 7 7 7 6 9 7 4 5 4 2 3 2 5 6 6 2 1 3 3 3 1 3 3 4 7 7 5 4 4 6 4 1 7 15 8 4 3 5 8 12 15 13 14 15 17
8 10 12 13 13 11 9 7 6 6 7 7 8 9 9 9 7 5 5 4 2 5 5 4 11 8 6 7 9 11 5 4 14 15 13 17 22 19 10 7 5 4 6 10 7 6 6 8 6 4 5 3 3 3 3 5 7 5 3 2 1 3 2 2 5 4 4 4 3 6 5 3 6 3 0 10 15 7 3 2 2 6 10 12 11 13 16 17
7 9 11 11 10 8 7 6 5 6 7 6 8 10 10 10 11 11 11 9 4 3 7 9 11 7 6 6 6 6 3 7 13 12 12 16 20 21 16 13 8 6 11 13 8 7 4 2 3 5 5 2 4 3 2 4 3 2 3 2 3 2 1 3 4 3 3 2 3 5 3 3 2 1 4 13 11 4 2 3 4 7 8 9 9 13 16 16
5 5 7 7 8 7 5 4 4 7 7 6 8 10 9 8 10 13 13 12 10 9 5 4 5 5 4 4 7 5 4 7 10 9 11 15 18 22 24 20 12 11 14 14 14 11 6 6 6 7 9 4 3 3 2 4 2 3 5 5 5 2 1 2 1 2 1 1 2 2 4 3 1 1 5 9 4 5 5 3 3 5 8 10 9 12 16 17
4 4 4 5 6 5 3 3 5 7 6 6 8 8 7 6 6 7 9 10 10 11 10 10 10 7 8 9 7 4 4 8 9 8 10 14 20 23 25 23 16 15 17 18 15 11 10 13 12 9 4 3 4 4 4 2 3 4 6 5 6 4 0 2 2 2 1 1 3 2 3 3 1 2 8 7 2 6 6 5 5 6 8 9 9 10 14 17
2 2 3 4 4 3 2 3 5 7 6 5 6 5 4 4 4 4 5 6 8 9 5 4 7 6 14 15 6 2 6 8 7 7 9 12 18 19 20 22 21 17 15 15 10 8 10 8 11 8 1 4 3 3 2 2 3 3 6 4 5 8 2 3 0 1 1 1 3 3 3 5 4 9 11 4 3 5 4 6 6 7 8 7 8 8 11 17
1 1 2 3 2 1 2 3 4 5 5 4 3 2 1 2 3 2 2 4 7 9 5 4 4 1 7 7 2 4 7 8 6 4 7 11 13 14 16 18 22 21 18 18 12 10 10 9 16 10 2 6 3 0 3 4 4 1 4 4 1 7 4 5 1 2 1 1 3 2 5 6 7 12 9 2 6 6 5 8 8 8 8 7 8 7 9 16
2 1 1 1 1 0 1 3 4 4 4 3 1 1 1 1 2 0 2 4 6 6 4 6 6 4 7 2 0 6 6 6 6 5 9 9 8 11 12 12 15 18 18 20 17 14 13 16 21 11 2 5 3 2 4 5 4 0 2 2 1 3 4 4 1 3 3 1 2 3 3 7 8 10 7 5 8 8 8 10 9 9 8 7 8 8 9 14
2 1 0 0 1 1 2 3 3 4 4 4 2 1 1 3 3 2 3 4 4 3 3 6 7 6 8 2 0 5 6 6 9 11 12 9 7 8 7 9 11 13 13 14 14 12 12 14 14 6 1 3 4 5 4 4 4 3 1 3 2 1 4 6 2 4 3 0 2 2 4 8 9 8 4 5 7 9 10 10 9 10 9 9 8 9 9 12
2 1 1 1 2 2 2 2 2 3 4 5 4 3 3 4 3 4 4 2 3 3 2 5 7 7 6 1 1 5 6 7 11 13 11 8 9 8 3 6 7 8 8 9 8 7 12 13 7 2 2 3 5 6 3 3 4 3 1 3 3 2 3 6 3 1 1 2 1 3 4 7 7 5 1 4 7 8 9 11 10 10 10 10 8 8 8 10
1 1 0 1 2 2 1 1 2 4 5 6 7 6 4 3 2 3 3 2 2 3 3 5 6 7 4 2 2 4 5 6 10 11 8 8 9 7 2 2 2 3 3 6 6 5 9 9 2 0 4 4 2 4 4 3 4 3 3 1 3 2 3 4 4 4 3 1 3 4 6 11 11 7 4 4 8 8 10 12 11 10 10 9 8 8 9 10
1 1 1 2 2 2 2 2 4 4 5 6 7 8 7 5 5 3 2 2 3 3 3 5 6 5 2 4 2 3 6 7 10 10 8 5 6 8 6 3 2 3 3 4 7 7 6 4 2 2 4 4 3 5 3 2 3 2 2 2 3 3 3 4 5 2 2 1 5 4 8 15 15 12 9 6 7 9 12 12 9 9 9 9 9 8 10 11
3 3 3 3 3 3 2 2 3 3 2 4 3 4 4 4 5 6 8 7 1 2 1 2 4 3 1 3 3 5 5 5 7 10 10 5 3 4 6 7 4 3 3 2 4 6 3 3 5 3 2 2 2 4 4 5 5 4 4 3 3 5 4 5 6 3 1 3 7 7 10 13 14 13 10 6 7 10 12 10 8 8 8 9 9 9 11 10
6 6 5 3 2 1 0 1 3 4 3 3 3 4 3 2 4 5 10 10 3 1 2 2 2 3 1 2 5 7 3 3 5 10 13 8 3 3 4 7 7 5 5 1 3 4 3 5 2 2 3 4 4 4 4 2 3 4 2 3 5 5 5 5 5 4 1 2 7 6 8 14 14 14 11 6 7 9 11 10 10 10 9 9 9 11 12 12
9 7 4 3 2 2 1 2 4 5 7 8 6 3 0 2 2 1 2 4 1 1 1 2 3 3 1 1 6 6 1 2 4 11 16 10 3 2 3 5 6 4 3 2 3 3 5 5 2 5 6 5 4 4 5 3 3 3 3 3 4 4 6 5 2 4 2 1 6 4 10 17 15 14 11 4 7 9 11 11 12 12 11 9 10 13 13 12
9 5 3 4 4 4 3 3 3 5 7 7 4 2 2 3 3 3 3 2 2 2 2 1 2 2 0 0 5 5 4 4 4 9 16 12 4 1 2 5 6 1 3 3 2 5 5 2 5 5 5 5 4 4 4 2 3 3 2 1 3 3 4 5 2 2 2 0 5 6 10 17 15 12 9 4 7 7 7 10 10 10 10 10 11 12 12 11
6 4 5 5 5 5 4 4 3 4 5 1 4 6 5 5 6 3 3 3 1 2 2 2 2 2 2 2 5 5 5 4 2 7 16 12 4 2 2 5 4 1 4 3 2 1 2 3 5 3 6 6 4 3 3 2 1 2 2 1 5 3 1 4 3 3 3 3 5 6 8 13 11 7 5 2 5 5 4 7 8 8 10 12 11 9 10 12
3 4 5 5 4 4 4 4 3 3 6 8 9 9 8 7 6 3 3 2 1 1 1 1 1 1 1 2 5 4 4 2 1 5 13 9 2 1 3 4 3 3 2 2 5 4 1 3 2 5 5 5 3 1 3 2 3 3 4 4 4 2 2 5 4 5 5 2 2 5 6 6 5 5 4 3 2 5 4 5 8 9 10 10 9 10 11 12
1 4 5 5 3 4 3 2 3 5 8 9 10 9 7 6 4 3 4 2 1 2 1 1 0 1 2 3 6 2 3 1 1 4 8 6 2 1 2 2 2 1 3 0 3 3 1 2 1 4 4 4 3 1 1 3 3 4 4 6 5 1 3 5 6 6 5 3 1 3 4 5 4 4 6 4 5 6 3 4 10 10 8 8 9 12 13 12
3 5 5 5 3 4 2 1 2 4 5 6 7 6 6 5 5 4 4 4 2 4 2 0 1 1 1 4 6 1 2 2 2 2 5 5 1 2 1 1 2 1 5 2 1 1 1 1 2 3 3 4 3 2 4 4 2 4 3 5 5 0 3 5 4 2 2 3 2 3 1 4 5 5 6 4 6 9 7 6 10 10 8 8 9 12 11 11
6 6 5 4 3 4 3 2 1 2 2 1 4 3 4 4 4 4 4 5 3 2 1 1 1 2 0 3 4 2 1 3 1 3 5 5 2 2 1 3 0 0 2 2 2 1 3 2 3 3 4 3 1 2 4 6 3 4 2 4 1 3 5 4 2 2 2 3 4 3 2 2 5 6 5 4 6 9 9 8 10 9 10 10 10 12 12 13
7 7 5 3 3 4 3 1 2 1 2 1 4 2 3 3 3 2 4 2 2 0 2 1 0 3 1 2 4 3 1 3 2 1 3 6 3 2 2 2 3 1 0 2 4 3 2 2 3 4 3 1 3 3 6 7 1 4 4 3 3 3 3 2 4 3 1 2 4 4 2 1 6 6 3 3 4 7 9 9 10 9 9 10 11 12 13 13
6 6 4 2 3 3 2 2 1 1 2 2 5 1 2 3 3 4 4 1 2 1 1 1 1 2 3 3 5 4 1 2 1 3 4 6 4 4 3 2 5 4 0 2 4 4 1 2 5 6 4 4 4 2 5 7 3 4 2 1 1 3 2 3 4 3 2 3 3 4 2 1 5 6 4 2 1 6 8 8 8 9 9 9 10 11 12 11
5 5 4 2 2 1 1 3 3 1 1 3 5 1 2 2 4 6 2 3 1 1 0 1 1 2 4 3 4 4 2 2 3 4 3 2 4 6 3 3 5 5 1 3 1 3 1 1 2 3 2 4 3 2 3 5 3 4 4 3 2 4 3 3 2 3 3 2 5 5 1 2 2 6 4 2 3 5 6 7 8 9 9 9 9 10 11 10
5 4 4 4 3 2 2 3 2 0 1 4 4 0 2 3 5 5 2 4 0 2 1 1 2 4 5 1 2 4 3 4 5 4 3 3 4 6 4 1 3 3 3 4 3 4 3 1 2 1 1 2 3 1 0 1 1 3 3 3 3 4 3 3 4 4 3 3 5 4 3 2 2 6 5 5 6 5 6 7 10 11 11 11 9 9 10 9
4 4 5 4 4 3 2 1 1 2 3 5 3 2 4 3 1 2 4 3 2 2 1 1 2 3 4 1 1 3 3 3 4 4 2 2 3 3 2 2 1 3 4 3 3 5 3 3 2 2 0 2 3 1 3 3 4 4 3 4 4 4 4 4 4 2 1 4 3 2 3 1 5 9 9 10 12 9 8 9 10 11 11 12 11 10 8 7
4 4 4 4 3 2 1 1 2 4 6 6 2 4 7 4 2 4 3 3 1 1 1 1 2 1 2 2 1 2 2 1 2 3 1 0 2 2 1 2 3 1 2 2 2 5 4 3 2 2 1 1 3 2 2 3 3 3 2 3 2 2 4 4 4 3 3 4 2 1 2 3 5 7 9 12 13 10 8 8 9 10 11 12 12 10 9 8
4 4 3 3 3 2 3 4 5 7 7 5 4 5 4 1 5 3 2 4 2 2 2 2 2 2 1 1 2 2 1 1 1 2 1 2 2 2 2 2 2 2 2 1 0 1 1 4 2 1 1 1 2 2 2 2 2 1 2 3 2 3 2 3 3 2 4 5 4 2 1 3 3 4 7 9 9 9 7 7 7 8 11 11 10 10 11 11
4 4 4 4 5 5 5 5 5 7 6 4 6 5 3 4 4 2 3 4 1 2 1 1 2 2 3 2 2 1 1 2 1 1 1 0 2 3 2 3 3 3 3 1 2 1 1 5 3 2 2 1 1 1 3 4 2 1 2 3 0 3 4 2 3 3 1 3 3 3 3 5 4 9 10 5 6 8 6 6 6 9 11 7 8 11 11 11
2 3 4 5 5 5 4 4 5 5 4 5 6 2 4 4 2 3 3 1 1 1 1 3 2 1 4 4 3 3 0 2 1 1 1 2 3 3 2 3 3 3 4 3 2 1 0 5 3 2 2 3 0 2 1 2 0 0 1 2 3 3 5 3 1 1 4 1 4 2 4 5 4 8 9 5 6 7 6 6 6 9 10 7 8 11 10 11
1 2 3 5 5 4 3 3 4 4 4 7 4 3 5 3 1 3 2 0 1 2 3 2 2 1 2 3 3 3 2 2 2 1 2 2 2 3 3 1 0 2 3 3 2 2 1 4 4 1 1 1 1 2 2 3 2 3 1 3 2 1 4 3 1 4 3 1 4 2 4 6 2 4 6 6 6 8 8 8 8 9 9 8 10 11 11 12
1 3 4 5 5 3 3 3 3 4 5 5 1 4 3 2 0 1 1 0 0 2 3 2 3 1 2 2 3 3 1 1 2 1 1 2 2 2 4 1 2 2 1 2 1 0 2 2 5 1 1 3 3 2 3 3 2 2 2 2 2 1 1 1 0 2 3 3 5 4 5 4 4 5 5 5 7 8 9 9 9 10 10 10 11 11 12 12
1 2 2 4 4 3 2 2 3 5 5 3 2 3 1 1 2 1 1 0 1 2 1 4 2 0 2 4 3 2 1 3 1 1 1 1 2 1 3 2 1 2 3 2 2 1 2 1 4 2 1 3 3 1 2 1 3 3 1 1 2 2 3 1 1 2 1 3 4 5 5 4 6 6 5 7 10 10 10 9 9 11 11 11 11 11 12 12
2 2 2 3 4 3 2 3 4 5 4 2 4 3 1 2 2 1 1 0 1 1 2 3 2 1 3 3 3 1 0 2 3 2 2 2 2 1 2 2 3 2 2 3 3 0 2 2 4 4 3 2 1 2 5 4 2 2 1 0 1 1 2 0 0 2 2 2 2 3 5 7 7 4 6 10 11 10 10 9 9 11 12 13 13 13 13 12
3 2 2 2 3 2 3 5 5 3 2 2 2 2 1 1 1 1 2 1 0 1 1 2 3 2 3 2 2 1 1 1 2 2 2 2 2 1 2 1 3 4 1 2 2 0 1 3 3 3 3 3 3 3 3 4 5 4 3 4 3 3 3 1 3 1 2 2 4 2 6 11 7 3 6 9 9 9 9 8 10 13 14 15 14 14 13 12
4 1 2 2 2 1 4 4 2 2 2 2 2 1 1 0 1 1 1 0 0 0 1 1 2 2 2 1 1 2 2 1 2 2 3 4 3 1 2 3 0 4 4 2 2 2 2 3 1 4 5 4 3 1 1 2 3 3 2 3 3 4 5 4 3 3 1 1 2 3 3 11 6 3 5 7 6 7 9 9 12 14 14 14 14 14 13 13
3 2 0 4 2 1 5 2 2 2 0 2 2 1 1 1 1 0 0 1 1 0 1 1 2 2 1 1 1 2 3 3 3 3 3 3 1 2 2 4 1 2 4 1 2 1 2 2 1 4 5 3 2 1 1 1 3 2 1 2 4 3 3 5 5 3 2 3 2 2 4 10 6 1 3 5 5 7 10 11 13 13 13 13 14 14 13 13
2 3 0 5 3 1 3 1 2 2 3 2 2 1 1 1 2 2 1 2 1 2 1 1 2 1 0 1 1 2 3 2 2 2 1 2 1 1 3 4 2 1 1 2 2 1 1 1 1 3 6 6 5 5 5 3 0 2 3 2 3 3 5 3 2 2 1 5 6 3 7 9 5 3 5 7 8 11 13 14 14 13 13 14 14 14 15 15
2 0 2 4 5 4 2 3 4 2 2 1 2 3 1 1 1 2 2 2 1 2 1 1 1 1 1 1 1 1 2 1 2 2 2 1 2 2 3 5 3 1 1 1 1 0 2 2 2 0 3 5 6 6 4 2 2 2 2 2 3 4 6 3 1 2 3 4 6 5 9 11 9 9 13 14 13 14 17 16 16 14 13 13 14 15 15 14
1 1 2 4 5 5 2 1 4 4 2 1 2 3 0 1 2 0 2 2 1 1 1 1 0 1 2 1 0 2 2 1 1 2 2 2 3 2 2 3 3 1 1 2 4 3 2 1 3 5 6 7 8 7 1 2 2 6 5 4 5 5 5 4 3 3 4 2 3 8 13 16 17 17 16 16 15 16 17 17 18 17 14 15 15 14 15 14
1 1 1 1 3 3 3 3 3 3 1 2 2 1 1 2 3 1 1 2 0 0 0 0 1 1 2 1 1 2 2 1 0 1 2 3 3 3 2 1 3 3 1 2 2 3 4 2 4 6 9 12 10 10 4 1 6 11 9 6 7 6 5 6 7 7 4 2 7 11 10 12 18 19 17 17 18 17 17 18 19 18 16 16 16 17 18 18
1 2 1 1 1 1 1 2 2 4 2 1 1 0 0 2 3 2 1 1 1 0 0 0 1 3 5 3 1 1 2 2 2 2 2 1 2 3 3 1 1 4 3 2 2 3 5 3 4 3 8 13 10 11 10 6 8 9 8 8 8 6 9 11 15 10 6 4 13 14 11 14 18 20 20 19 18 17 17 17 18 17 16 17 19 21 21 20
1 1 0 2 0 2 1 1 3 5 3 2 1 1 2 2 4 4 2 1 2 1 1 2 5 5 4 4 2 1 2 2 3 4 2 1 1 0 1 1 0 3 3 2 2 1 4 3 3 2 7 14 11 10 9 6 6 7 7 9 8 9 12 14 14 10 7 11 18 19 20 20 18 19 21 19 17 14 13 14 17 19 18 19 21 23 21 19
1 2 1 2 3 1 2 3 3 4 2 1 1 2 2 4 5 4 2 2 1 1 2 3 5 4 3 4 4 4 6 5 2 3 3 2 2 2 2 2 2 2 3 2 1 1 1 2 1 3 4 12 8 4 2 4 5 8 10 9 7 7 8 8 9 8 6 11 16 16 16 16 15 15 16 14 12 10 11 15 19 20 20 21 22 21 19 18
2 2 3 4 2 0 2 2 3 4 0 1 2 3 2 4 6 3 1 2 2 3 5 6 4 1 1 3 5 7 7 5 3 4 4 4 3 3 2 2 4 4 1 1 0 0 2 2 1 5 4 7 3 6 7 6 5 5 9 10 6 3 4 5 6 6 7 8 11 9 9 11 11 10 11 12 11 11 14 17 19 19 21 23 22 17 15 17
3 2 2 4 1 1 1 1 2 1 2 2 3 3 2 3 4 2 1 1 1 1 4 6 5 2 0 2 5 7 5 4 5 5 3 3 1 2 1 1 5 6 5 4 1 1 3 2 1 3 2 6 5 8 10 8 5 2 3 4 4 3 4 4 4 6 9 7 5 6 8 11 12 13 15 17 17 15 15 15 16 18 21 23 19 15 15 18
Wind_Direction
86 93 99 106 113 118 127 131 122 117 105 79 78 84 81 93 100 107 125 118 107 84 85 92 60 46 31 20 9 12 25 48 53 44 40 7 350 351 347 344 344 353 7 26 30 55 50 42 35 39 51 44 16 343 18 18 30 51 78 86 130 172 198 180 172 187 162 178 198 191 164 147 218 238 157 68 40 67 325 327 308 315 293 247 217 166 167 173
84 91 97 102 113 124 137 148 135 123 95 69 77 82 82 97 103 104 135 121 99 1 332 295 334 311 318 344 338 350 351 25 42 35 18 1 357 356 354 359 359 358 14 58 51 71 71 32 22 44 48 38 356 357 16 5 36 73 104 86 174 192 196 179 167 176 173 167 174 186 176 173 214 188 149 197 277 23 245 263 323 316 286 255 185 161 167 176
89 93 97 99 112 125 141 155 141 119 89 81 80 81 85 96 99 92 150 153 320 325 326 304 309 304 304 313 321 336 333 18 40 15 1 4 360 357 2 7 6 4 35 90 79 83 91 81 57 59 53 45 9 6 28 12 28 88 103 83 205 203 194 236 178 178 204 153 152 186 178 195 236 174 157 193 195 227 225 220 207 247 239 218 196 178 176 183
90 91 100 104 113 125 136 143 127 109 90 81 76 74 82 79 46 23 221 257 321 341 342 321 306 298 289 295 311 320 334 31 38 345 358 7 3 359 0 8 13 15 90 104 95 90 91 82 63 61 66 41 347 15 37 354 16 75 80 122 182 169 107 305 203 173 170 136 149 161 132 217 238 167 188 160 147 251 242 218 199 210 207 197 204 193 188 192
75 72 96 109 114 122 125 126 116 104 82 73 72 70 72 62 52 28 243 270 348 24 25 21 12 346 314 302 296 294 351 52 338 346 5 10 11 1 356 10 20 54 111 111 103 95 83 71 59 51 57 40 349 25 29 333 60 68 18 165 164 150 116 326 175 138 114 92 117 138 151 205 171 165 196 164 185 232 227 215 207 210 193 186 195 195 195 202
70 73 96 107 113 121 121 123 113 95 75 67 70 72 75 74 69 63 60 317 66 90 53 48 49 52 53 37 22 351 70 90 324 351 6 12 17 6 357 9 47 108 119 119 99 85 66 49 55 48 52 47 15 46 352 321 57 91 32 1 357 136 127 100 131 134 112 111 140 164 186 150 133 263 205 182 224 222 207 215 215 226 200 188 187 187 196 206
81 86 101 108 113 119 119 118 102 82 72 63 69 81 83 77 68 63 45 11 155 174 140 44 23 33 50 50 62 66 82 71 340 356 6 14 20 16 14 26 80 145 146 109 84 81 68 54 71 96 75 63 62 82 356 341 46 88 119 340 356 72 93 85 138 120 100 140 187 164 131 138 175 244 89 209 236 229 241 263 230 224 196 186 187 190 200 207
95 95 102 107 112 118 117 108 85 68 64 61 80 92 85 73 62 64 59 53 165 217 226 324 340 339 352 17 61 58 56 343 345 359 10 17 22 26 43 60 72 145 100 74 82 101 79 67 104 135 78 65 131 94 11 24 40 72 133 192 70 55 56 79 95 84 95 147 176 127 141 217 200 198 65 237 241 235 263 343 159 179 174 184 194 202 206 212
112 108 105 105 113 120 114 97 67 48 56 70 98 101 86 72 70 78 75 63 50 311 275 291 316 320 336 10 79 65 355 334 347 359 12 17 23 32 49 54 59 109 85 65 68 87 80 101 175 153 125 153 113 69 359 59 49 118 127 151 106 59 36 80 79 83 102 139 123 140 204 271 222 208 260 247 241 207 140 82 133 155 174 194 204 210 210 215
131 138 124 113 116 118 111 88 48 42 57 89 111 107 91 77 80 80 71 61 50 31 358 301 322 319 310 12 73 73 329 346 2 8 18 19 24 36 44 45 59 85 79 65 61 63 89 145 152 126 121 122 91 49 4 89 122 125 107 103 87 66 271 52 96 139 86 168 153 191 247 269 278 292 260 258 234 143 130 143 179 175 194 205 210 218 216 221
141 164 148 123 113 115 114 75 44 45 64 105 120 117 93 76 84 71 57 56 46 41 56 75 61 55 79 72 81 92 353 2 17 19 20 22 29 37 41 41 54 75 81 73 62 68 95 126 127 111 104 92 89 48 23 80 104 101 107 88 23 359 344 74 117 202 292 197 155 148 253 260 351 252 243 257 177 142 158 184 205 206 212 215 217 226 225 228
144 167 146 119 104 108 100 61 45 49 70 111 125 129 98 71 69 42 47 54 36 28 30 51 42 68 79 67 73 76 7 8 18 21 16 22 33 40 44 47 51 63 82 76 57 72 91 121 113 91 79 120 103 46 65 79 77 97 92 85 342 1 346 255 208 201 234 177 168 140 290 260 191 226 246 256 149 141 164 202 216 220 224 226 226 234 234 235
119 147 131 115 90 81 78 57 51 54 73 110 136 156 108 39 37 13 42 32 12 8 344 340 354 162 89 59 33 26 16 17 18 20 21 29 40 43 47 51 54 57 71 77 65 74 90 103 100 94 99 105 109 147 106 57 55 140 57 90 306 1 324 252 65 90 147 155 170 120 303 270 223 235 248 212 153 143 184 221 223 223 228 232 231 238 241 240
71 76 124 109 61 108 74 61 63 54 67 93 110 252 284 29 56 334 335 339 339 357 27 55 47 87 90 92 300 27 29 39 33 20 18 27 45 45 45 48 55 58 65 75 75 82 96 96 90 92 72 84 119 98 51 20 29 71 25 64 48 357 276 260 117 133 143 156 111 94 266 269 271 259 241 187 167 164 204 224 223 228 229 232 235 237 244 244
51 40 103 152 205 158 101 79 66 42 58 65 44 26 112 105 86 22 334 324 347 23 66 45 32 82 81 60 282 25 37 52 32 16 7 12 27 23 34 50 57 59 61 68 74 78 85 86 79 75 22 28 67 72 36 2 16 30 350 316 352 194 263 300 285 163 154 348 41 101 248 272 277 276 254 180 174 184 215 229 225 229 232 232 238 237 244 250
44 20 303 200 166 145 106 78 60 59 71 62 54 74 115 112 82 46 26 9 47 51 82 34 27 86 95 35 28 26 33 33 14 8 2 8 14 357 16 79 69 59 60 59 66 63 53 63 68 64 78 32 56 83 56 22 352 2 55 267 276 220 283 318 320 325 66 70 2 213 243 280 272 281 325 159 184 198 222 239 231 230 235 233 237 239 243 252
24 23 243 186 167 140 89 81 121 113 91 74 70 76 100 105 52 43 29 41 76 38 66 50 32 79 85 20 40 7 356 1 360 3 9 20 18 12 40 138 68 25 45 42 36 25 25 40 65 4 58 46 63 91 55 7 305 324 29 277 258 234 273 309 312 330 25 89 244 221 232 257 261 272 277 194 192 202 225 240 236 233 237 236 238 241 244 246
107 121 148 187 166 117 96 127 143 136 94 72 71 77 88 79 54 48 4 290 250 323 33 29 30 79 52 355 7 319 319 339 359 8 12 24 31 38 49 52 5 342 351 21 25 24 15 22 65 57 32 18 35 76 92 243 232 237 269 278 301 286 249 272 279 292 30 281 244 237 250 258 263 265 263 236 196 203 228 237 240 241 239 241 241 240 244 244
130 125 135 128 110 100 104 159 171 175 104 54 54 63 63 61 52 47 42 40 348 322 332 346 30 108 251 316 315 319 331 356 14 15 11 11 12 24 34 34 38 32 33 23 8 20 26 21 46 63 3 344 35 111 155 200 183 190 227 209 254 283 262 248 259 245 117 293 260 241 254 265 272 268 260 240 199 208 234 241 246 249 243 244 243 243 245 244
131 123 122 97 73 74 57 236 241 245 259 297 310 343 350 28 23 8 32 43 58 117 123 179 115 100 32 318 329 336 349 40 32 20 13 3 340 331 359 21 29 45 56 10 327 4 63 61 67 182 208 216 217 181 135 127 148 148 153 189 237 262 272 264 272 268 199 299 264 241 269 278 277 275 265 227 193 216 235 242 248 245 244 243 241 246 245 243
129 118 99 50 21 34 27 288 279 270 273 280 285 326 185 155 50 312 19 31 282 224 64 176 150 91 93 296 345 352 41 58 17 19 14 1 2 350 324 27 46 35 13 273 286 345 57 82 193 219 199 188 192 158 110 82 101 112 157 214 263 243 259 276 270 284 349 359 270 293 307 289 283 283 276 197 180 224 226 229 243 242 244 246 242 248 247 249
123 100 56 40 39 37 16 337 313 292 296 283 246 108 117 154 127 137 125 81 286 321 28 102 97 40 4 118 0 7 63 44 348 1 6 1 21 29 322 48 80 95 353 352 326 360 38 120 229 220 158 112 78 104 110 110 118 108 163 198 282 257 277 302 325 334 4 326 287 333 318 292 290 290 282 203 196 233 224 222 238 241 246 247 242 247 252 259
110 76 46 36 38 30 10 358 341 333 351 21 138 109 97 104 108 99 79 92 319 333 13 37 70 22 1 45 12 26 68 62 293 329 353 0 27 54 61 69 76 71 8 16 148 59 359 256 234 177 127 109 86 82 91 66 92 163 212 251 279 288 350 297 319 348 294 242 279 308 295 285 297 309 307 267 226 260 258 239 245 240 243 248 247 250 251 255
92 57 33 23 27 13 3 11 19 41 66 91 102 105 106 88 79 67 60 81 302 314 2 2 136 114 76 41 9 42 93 94 203 315 348 11 86 42 80 117 84 60 2 29 130 127 293 260 160 105 94 118 145 11 78 79 326 261 217 209 238 261 215 244 296 322 304 286 256 293 297 284 311 337 313 316 298 282 276 265 264 247 242 253 261 259 248 246
37 17 17 12 5 355 347 7 47 77 89 97 102 102 93 63 36 40 62 64 309 300 314 299 108 131 138 41 6 63 127 74 185 293 344 26 106 2 58 137 90 125 223 223 101 116 182 244 155 106 68 84 130 291 201 161 319 307 241 205 198 237 262 267 309 332 342 351 300 351 344 294 316 319 276 308 340 302 288 269 269 261 250 251 254 256 251 248
319 341 360 356 345 347 320 289 66 92 91 96 115 101 64 48 36 42 67 56 321 288 305 257 42 46 168 1 356 84 99 339 273 331 9 25 40 125 92 290 27 169 200 171 68 187 179 19 48 134 115 76 83 274 232 148 59 325 263 189 175 252 293 283 302 344 352 294 299 42 59 268 311 305 273 317 328 299 297 272 266 267 259 246 243 251 254 252
305 315 329 338 336 333 307 240 152 110 72 117 151 102 46 48 34 26 56 38 320 264 76 275 339 47 336 323 347 110 128 301 325 29 27 20 348 111 65 283 330 7 186 122 343 240 159 92 64 111 103 80 28 272 213 142 90 288 214 145 199 285 276 263 206 176 239 282 326 16 117 231 295 277 274 329 319 300 301 284 272 266 257 251 246 249 250 249
290 297 308 332 342 328 323 117 151 108 25 202 183 131 33 19 342 1 75 57 303 139 75 308 41 49 356 338 25 82 264 316 74 308 355 38 25 56 37 249 177 201 22 122 271 271 141 171 194 155 114 197 239 221 178 146 117 260 198 185 282 280 234 181 142 172 274 351 324 319 55 127 272 271 299 350 315 298 292 278 274 268 260 256 253 252 250 250
283 287 298 332 348 339 8 41 26 15 11 171 171 162 353 339 342 47 79 183 291 51 66 345 46 348 343 5 14 25 349 1 75 289 337 51 45 49 72 172 134 137 4 94 230 246 107 229 205 155 152 222 229 200 160 157 233 273 232 230 16 66 80 93 110 144 39 11 267 270 7 36 275 283 310 356 278 268 269 268 267 267 268 262 258 259 256 255
286 282 294 317 335 350 12 354 346 352 17 157 166 210 321 345 45 62 33 251 284 358 247 2 298 325 16 26 341 360 37 338 327 326 348 45 15 38 99 164 101 114 317 9 251 242 338 294 203 138 175 200 174 146 160 178 254 324 1 346 24 46 45 58 75 101 66 327 257 254 309 61 303 285 263 232 242 235 248 277 280 277 279 270 260 259 258 257
298 286 295 306 301 303 314 339 351 200 157 152 167 243 3 16 65 93 238 248 277 327 355 25 325 14 37 79 294 354 24 337 332 359 17 5 354 19 56 89 52 58 354 352 318 296 345 2 249 288 224 136 98 57 222 188 326 18 31 356 350 351 20 28 354 42 76 276 262 260 286 117 226 269 249 243 263 239 228 262 277 279 281 278 270 262 258 257
311 297 300 309 304 306 316 346 76 152 150 148 148 53 66 36 17 174 251 299 356 317 15 12 323 23 23 6 357 343 341 339 3 48 57 14 5 11 53 175 181 12 339 308 318 326 310 232 269 327 212 113 92 346 335 3 24 33 44 37 17 348 4 4 331 1 199 244 233 245 306 248 228 254 260 264 272 258 231 233 251 264 271 274 275 271 267 263
326 314 322 332 327 332 48 126 153 144 145 148 109 49 75 79 251 225 265 315 339 320 40 33 323 351 351 338 334 313 297 287 19 48 131 99 21 341 290 193 173 111 299 243 341 349 328 297 340 29 299 85 120 145 313 327 12 30 70 83 71 48 13 326 297 311 286 267 253 263 309 286 269 267 246 246 261 260 245 239 243 253 261 267 275 281 284 276
4 355 357 14 35 69 103 127 144 143 146 135 78 56 77 166 240 230 274 266 265 350 31 64 350 340 357 296 279 278 258 274 2 43 2 27 27 296 272 249 192 127 108 100 356 42 325 299 325 105 271 354 111 157 175 154 61 42 156 127 123 137 136 264 251 266 292 297 292 298 264 212 252 278 232 227 259 270 264 260 258 261 260 265 280 285 281 274
20 28 39 56 69 82 106 127 139 145 149 106 62 71 138 231 251 222 243 253 271 350 334 51 52 6 322 307 298 283 188 261 329 73 341 49 183 213 216 219 204 134 118 148 260 148 188 265 279 316 298 78 74 212 124 101 67 301 162 110 149 172 151 196 206 196 267 330 295 270 237 211 231 280 277 278 294 288 281 275 272 271 269 273 280 277 273 270
26 49 56 63 69 78 95 117 132 143 133 85 65 91 197 228 242 185 209 243 93 162 328 352 40 64 303 307 326 346 16 246 319 25 281 234 205 206 192 207 195 147 135 160 221 148 354 279 294 343 358 66 108 245 81 65 70 75 114 183 231 171 121 115 273 358 76 31 284 262 259 280 313 293 296 338 328 305 309 299 280 273 279 286 276 272 272 270
68 74 69 52 50 71 94 103 122 129 95 82 99 212 222 225 199 179 200 347 164 138 81 345 288 208 272 295 302 317 339 285 318 350 264 267 248 196 170 209 122 145 163 163 220 194 152 281 304 39 46 354 261 208 36 34 115 108 172 222 217 102 91 98 311 343 42 227 272 283 269 290 338 294 308 344 322 299 299 296 291 286 285 281 272 271 272 270
118 87 69 40 34 62 91 95 118 113 79 76 151 244 222 206 285 168 188 186 174 86 93 229 252 213 206 242 277 277 233 265 310 341 247 267 266 181 141 136 51 32 266 137 95 252 121 286 306 25 201 306 1 60 354 357 67 107 194 195 92 138 241 51 99 320 344 294 283 293 288 272 216 233 285 305 292 290 290 290 292 290 286 284 282 281 280 280
100 75 40 24 30 45 80 119 110 80 69 93 226 256 222 237 282 190 185 223 121 106 159 225 251 334 178 183 223 258 217 220 240 328 242 237 265 177 121 153 123 12 326 81 122 227 102 108 286 301 243 303 1 68 242 314 37 42 50 11 33 150 181 178 139 172 243 278 288 312 321 274 228 210 213 259 280 287 286 287 287 284 285 289 292 292 291 291
62 47 337 3 35 41 81 102 72 62 76 168 205 222 255 267 272 255 245 240 151 157 211 213 201 243 225 207 219 246 229 206 181 187 235 241 274 309 50 103 137 134 325 41 96 186 73 123 253 302 327 291 282 209 198 182 149 90 97 238 329 101 137 242 248 145 147 198 235 299 302 269 249 197 203 256 279 280 277 281 281 282 287 291 294 295 297 297
70 44 298 350 36 43 84 71 48 66 124 192 211 216 248 216 207 299 302 293 193 221 197 179 182 202 212 229 261 235 178 199 186 199 246 242 248 304 14 33 151 155 123 62 79 289 118 156 219 295 309 255 236 230 195 182 169 156 177 195 182 142 116 71 289 278 115 172 189 188 285 277 265 173 211 253 271 277 282 284 282 288 292 294 296 295 295 297
78 89 281 4 18 51 83 68 19 92 132 204 238 240 271 125 145 287 310 4 351 252 77 130 188 194 187 186 236 200 171 210 207 204 234 226 208 208 347 351 160 141 116 129 232 234 144 115 166 266 265 251 252 270 158 182 162 146 179 184 150 137 130 147 239 253 178 211 175 117 270 273 265 163 216 254 271 286 291 286 285 291 292 292 296 297 298 298
102 190 257 33 4 108 81 54 304 356 240 246 277 258 227 141 147 196 282 237 215 149 15 295 207 198 219 198 149 181 200 212 190 188 229 236 217 239 303 340 339 118 88 123 229 232 117 91 22 276 284 306 327 354 18 75 110 139 245 155 145 160 142 157 187 191 197 219 168 99 263 269 282 284 246 272 293 295 292 288 288 294 300 303 305 307 309 307
147 197 74 27 6 136 120 189 241 291 276 294 354 293 247 194 174 161 220 244 222 160 161 252 215 189 230 136 114 197 214 221 212 225 239 213 224 292 338 351 355 82 69 192 187 196 238 167 60 329 322 331 345 354 343 343 89 220 246 190 160 123 98 115 154 102 276 228 171 170 258 264 280 330 318 309 311 304 298 296 298 302 307 312 315 316 315 312
117 9 316 356 26 84 139 185 157 168 249 345 336 286 300 309 214 170 198 233 212 178 184 279 239 120 79 90 68 267 233 222 265 311 10 237 270 327 4 356 6 57 245 224 147 273 229 195 141 138 300 295 302 313 309 290 264 246 221 203 205 157 139 164 149 116 250 236 155 178 259 273 290 311 311 308 309 305 302 304 305 305 309 313 316 316 313 313
110 20 312 329 17 62 75 128 112 121 167 158 299 295 99 271 290 274 175 206 193 163 183 290 223 77 64 86 344 284 269 234 275 327 337 262 269 299 332 354 28 73 140 69 49 64 103 219 209 190 211 239 260 268 224 99 293 275 260 218 209 204 171 130 103 183 208 198 188 229 256 281 293 297 300 302 304 302 303 308 309 311 318 318 313 311 312 315
126 161 178 308 344 36 43 23 67 89 158 187 220 270 205 261 301 348 178 220 262 141 234 141 144 153 177 179 232 265 269 309 322 271 253 241 256 291 315 33 46 358 1 53 29 81 94 299 247 202 231 248 263 276 284 14 274 267 270 251 218 204 164 155 211 224 159 100 266 252 254 278 286 290 297 300 301 303 306 310 310 313 318 317 314 316 318 320
136 179 150 121 266 243 57 23 85 90 71 117 163 203 307 289 286 256 216 292 359 307 218 4 284 225 197 175 162 253 294 320 270 248 245 262 290 333 352 39 30 346 4 37 358 99 123 259 252 191 258 265 266 274 273 265 263 264 267 262 242 201 174 198 230 227 153 210 263 271 277 279 282 290 295 294 296 302 307 307 306 309 315 317 319 321 321 321
81 122 356 27 71 193 155 29 100 102 85 75 110 216 193 209 248 246 207 65 358 314 182 239 272 254 213 186 158 205 248 260 280 270 222 197 248 334 346 292 335 358 25 76 1 108 147 240 242 164 282 281 271 268 263 249 266 284 271 255 242 219 204 214 238 239 205 236 260 273 280 280 279 282 284 287 293 298 299 302 305 310 318 322 321 320 320 321
131 169 200 44 61 109 37 29 90 102 72 43 231 248 192 184 229 251 196 158 238 270 183 217 254 250 209 189 173 215 224 191 222 262 186 156 279 219 210 213 155 35 19 98 3 319 173 257 239 108 305 290 289 322 311 216 236 278 287 279 260 240 229 227 245 252 235 246 259 269 279 280 274 271 275 281 290 299 305 311 314 316 321 323 319 317 318 320
150 158 151 114 95 356 6 21 94 113 117 266 212 231 215 203 215 217 218 205 182 189 188 190 205 183 113 169 205 242 241 185 200 247 195 188 245 219 212 210 145 133 150 157 117 58 162 252 355 60 339 288 324 13 329 281 257 275 296 300 292 250 225 223 225 216 210 243 271 284 288 284 283 288 292 291 296 307 314 316 318 319 320 318 315 315 318 321
146 105 112 111 93 301 84 62 62 105 236 239 201 203 223 243 228 188 224 296 58 158 208 180 163 137 74 216 232 251 255 213 230 255 214 188 185 111 124 120 119 136 166 164 143 128 138 150 103 65 303 274 320 342 315 313 336 327 295 295 283 255 236 247 270 243 215 222 279 293 283 288 302 312 312 312 315 319 320 320 318 318 316 311 310 317 323 324